sat.trackr.live / text

‹ back to catalog

STARLINK-4610

NORAD 53610 · 2022-104Y

PAYLOAD ACTIVE UNKNOWN

§ Identity

Operator
Country
US
Launch date
2022-08-28
Launch site
AFETR
Launch vehicle
Mass (kg)
RCS (m²)

Purposes: comms

External: N2YO · Heavens-Above · Gunter

§ Orbital elements

Epoch: 2026-05-24T16:04:09.859584Z

Period
95.44 min
Inclination
53.2145°
Eccentricity
0.0001038
Mean motion
15.08834332 rev/d
Perigee alt
539.0 km
Apogee alt
540.5 km
Semi-major
6,917.9 km
B*
4.2016e-5
RAAN
253.1564°
Arg perigee
95.5647°
Mean anomaly
264.5463°
Rev number
20,710

§ Raw data

STARLINK-46101 53610U 22104Y   26144.66955856  .00000381  00000+0  42016-4 0  99992 53610  53.2145 253.1564 0001038  95.5647 264.5463 15.08834332207108

JSON: /api/v1/satellites/53610 · /tle

For live sub-satellite position, see the globe view (requires WebGL).

§ Visibility from observer

Set your observer location to see the next 7 days of passes ≥ 10°. The values pass through the URL so the page stays shareable.

No JS? Fill the form by hand. The geolocation button needs JavaScript.